This is the latest recevied weather packets stored in our database for station/object N3FAA. If no packets are shown the sender has not sent any weather packets the latest 10 day(s).
| Time | Temp. | Humidity | Pressure | Rain* | Wind** | Luminosity | Snow |
|---|---|---|---|---|---|---|---|
| 1778158034 | 10.56° C | 68% | 1014.1 hPa | 0 mm | - | 0 W/m² | - |
| 1778157731 | 11.67° C | 68% | 1014.3 hPa | 0 mm | - | 0 W/m² | - |
| 1778157430 | 11.67° C | 67% | 1014.1 hPa | 0 mm | - | 0 W/m² | - |
| 1778157127 | 11.67° C | 68% | 1014 hPa | 0 mm | - | 0 W/m² | - |
| 1778156821 | 11.67° C | 67% | 1014.1 hPa | 0 mm | - | 0 W/m² | - |
| 1778156518 | 12.22° C | 67% | 1014.1 hPa | 0 mm | - | 0 W/m² | - |
| 1778156214 | 12.22° C | 67% | 1014.3 hPa | 0 mm | - | 0 W/m² | - |
| 1778155910 | 12.22° C | 66% | 1014.3 hPa | 0 mm | - | 0 W/m² | - |
| 1778155606 | 12.22° C | 64% | 1014.4 hPa | 0 mm | - | 0 W/m² | - |
| 1778155303 | 12.78° C | 64% | 1014.4 hPa | 0 mm | - | 0 W/m² | - |
| 1778154999 | 12.78° C | 64% | 1014.4 hPa | 0 mm | - | 0 W/m² | - |
| 1778154695 | 12.78° C | 62% | 1014.3 hPa | 0 mm | - | 0 W/m² | - |
| 1778154391 | 12.78° C | 63% | 1014 hPa | 0 mm | - | 0 W/m² | - |
| 1778154088 | 12.22° C | 65% | 1014.1 hPa | 0 mm | - | 0 W/m² | - |
| 1778153786 | 12.22° C | 64% | 1014.4 hPa | 0 mm | - | 0 W/m² | - |
| 1778153482 | 12.78° C | 63% | 1014.3 hPa | 0 mm | - | 0 W/m² | - |
| 1778153181 | 12.78° C | 63% | 1014.1 hPa | 0 mm | - | 0 W/m² | - |
| 1778152877 | 12.78° C | 63% | 1014 hPa | 0 mm | - | 0 W/m² | - |
| 1778152574 | 12.78° C | 62% | 1014.3 hPa | 0 mm | - | 0 W/m² | - |
| 1778152271 | 13.33° C | 61% | 1014.1 hPa | 0 mm | - | 0 W/m² | - |
| 1778151967 | 13.33° C | 61% | 1014.3 hPa | 0 mm | - | 0 W/m² | - |
| 1778151664 | 13.33° C | 61% | 1014.1 hPa | 0 mm | - | 0 W/m² | - |
| 1778151361 | 13.89° C | 60% | 1014.3 hPa | 0 mm | - | 0 W/m² | - |
| 1778151056 | 13.89° C | 59% | 1014.1 hPa | 0 mm | - | 0 W/m² | - |
| 1778150754 | 14.44° C | 59% | 1014.1 hPa | 0 mm | - | 0 W/m² | - |
* Rain latest hour (hover to see other rain measurements)
** Current wind speed in m/s (hover to see current wind gust speed)